Location: Arboyeti
(42.1122°N, 44.6017°E)
Time: 05:54:52
(UTC+00:00)

ISS - Pass Details

Date: 02 October 2021
Orbit: 417 x 423 km, 51.6° (Epoch: 18 October)

Event Time Altitude Azimuth Distance (km) Brightness Sun altitude
Rises 15:58:27 0° 307° (NW) 2,365 1.2 -15.1°
Reaches altitude 10° 16:00:36 10° 313° (NW) 1,500 -0.1 -15.5°
Maximum altitude 16:03:52 46° 29° (NNE) 569 -3.3 -16.1°
Enters shadow 16:04:39 38° 70° (ENE) 660 -3.2 -16.2°
